Change the Weather History Date:

Sunday, September 30, 2012

  Actual Average Record
Temperature  
Mean Temperature 76 °F -  
Max Temperature 81 °F 78 °F 79 °F (2014)
Min Temperature 70 °F 55 °F 60 °F (2013)
Cooling Degree Days 10    
Growing Degree Days 26 (Base 50)    
Moisture  
Dew Point 75 °F    
Average Humidity 87    
Maximum Humidity 100    
Minimum Humidity 74    
Precipitation  
Precipitation 0.00 in - - ()
Sea Level Pressure  
Sea Level Pressure 29.85 in    
Wind  
Wind Speed 1 mph ()    
Max Wind Speed 7 mph    
Max Gust Speed -    
Visibility 9.4 miles    
Events Rain , Thunderstorm    
Averages and records for this station are not official NWS values.
T = Trace of Precipitation, MM = Missing Value Source: Averaged Metar Reports

Daily Weather History Graph

Daily Weather History Graph

Search for Another Location

Airport or City:

Trip Planner

Search our weather history database for the weather conditions in past years. The results will help you decide how hot, cold, wet, or windy it might be!

Date:

Astronomy

Sep. 30, 2012 Rise Set
Actual Time 7:24 AM EDT 7:16 PM EDT
Civil Twilight 6:59 AM EDT 7:40 PM EDT
Nautical Twilight 6:31 AM EDT 8:08 PM EDT
Astronomical Twilight 6:03 AM EDT 8:37 PM EDT
Moon 7:25 PM EDT (9/30) 7:48 AM EDT (9/30)
Length of Visible Light 12h 40m
Length of Day
11h 52m
Full, 100% of the Moon is Illuminated
Sep 30
Full
Oct 8
Last Quarter
Oct 15
New
Oct 21
First Quarter
Oct 29
Full

Hourly Weather History & Observations

Time (EDT) Temp. Heat Index Dew Point Humidity Pressure Visibility Wind Dir Wind Speed Gust Speed Precip Events Conditions
12:15 AM 72.0 °F - - N/A% 29.90 in 10.0 mi Calm Calm - N/A   Scattered Clouds
12:35 AM 71.8 °F - - N/A% 29.90 in 10.0 mi SW 3.5 mph - N/A   Scattered Clouds
12:55 AM 71.8 °F - - N/A% 29.89 in 10.0 mi Calm Calm - N/A   Scattered Clouds
1:15 AM 71.6 °F - - N/A% 29.89 in 10.0 mi Calm Calm - N/A   Clear
1:55 AM 71.4 °F - - N/A% 29.89 in 10.0 mi Calm Calm - N/A   Overcast
2:15 AM 71.6 °F - - N/A% 29.89 in 10.0 mi Calm Calm - N/A   Overcast
2:35 AM 71.4 °F - - N/A% 29.88 in 10.0 mi Calm Calm - N/A   Overcast
2:55 AM 71.4 °F - - N/A% 29.88 in 7.0 mi Calm Calm - N/A   Overcast
3:15 AM 71.6 °F - - N/A% 29.88 in 10.0 mi Calm Calm - N/A   Overcast
3:35 AM 71.6 °F - - N/A% 29.88 in 10.0 mi Calm Calm - N/A   Overcast
3:55 AM 71.2 °F - - N/A% 29.88 in 10.0 mi Calm Calm - N/A   Overcast
4:15 AM 71.2 °F - - N/A% 29.87 in 10.0 mi Calm Calm - N/A   Overcast
4:35 AM 71.4 °F - - N/A% 29.86 in 10.0 mi Calm Calm - N/A   Overcast
4:55 AM 71.6 °F - - N/A% 29.86 in 7.0 mi Calm Calm - N/A   Overcast
5:15 AM 71.6 °F - - N/A% 29.87 in 7.0 mi Calm Calm - N/A   Overcast
5:35 AM 71.2 °F - - N/A% 29.87 in 7.0 mi Calm Calm - N/A   Overcast
5:55 AM 71.4 °F - - N/A% 29.87 in 7.0 mi Calm Calm - N/A   Overcast
6:15 AM 71.2 °F - - N/A% 29.87 in 7.0 mi Calm Calm - N/A   Mostly Cloudy
6:35 AM 71.2 °F - - N/A% 29.87 in 7.0 mi Calm Calm - N/A   Mostly Cloudy
6:55 AM 71.1 °F - - N/A% 29.87 in 7.0 mi Calm Calm - N/A   Mostly Cloudy
7:15 AM 71.1 °F - - N/A% 29.87 in 5.0 mi Calm Calm - N/A   Haze
7:35 AM 71.1 °F - - N/A% 29.87 in 7.0 mi Calm Calm - N/A   Mostly Cloudy
7:55 AM 70.9 °F - - N/A% 29.87 in 5.0 mi Calm Calm - N/A   Haze
8:15 AM 71.1 °F - - N/A% 29.87 in 7.0 mi Calm Calm - N/A   Mostly Cloudy
8:35 AM 71.4 °F - - N/A% 29.88 in 10.0 mi Calm Calm - N/A   Scattered Clouds
8:55 AM 71.8 °F - - N/A% 29.88 in 10.0 mi Calm Calm - N/A   Scattered Clouds
9:15 AM 72.1 °F - - N/A% 29.88 in 10.0 mi Calm Calm - N/A   Mostly Cloudy
9:35 AM 72.7 °F - - N/A% 29.90 in 10.0 mi Calm Calm - N/A   Overcast
9:55 AM 73.2 °F - - N/A% 29.90 in 10.0 mi SE 3.5 mph - N/A   Mostly Cloudy
10:15 AM 73.8 °F - - N/A% 29.90 in 10.0 mi South 3.5 mph - N/A   Mostly Cloudy
10:35 AM 74.5 °F - - N/A% 29.90 in 10.0 mi SSE 3.5 mph - N/A   Overcast
10:55 AM 74.8 °F - - N/A% 29.90 in 10.0 mi Calm Calm - N/A   Overcast
11:15 AM 75.0 °F - - N/A% 29.90 in 10.0 mi Calm Calm - N/A   Overcast
11:35 AM 75.6 °F - 75.6 °F 100% 29.89 in 10.0 mi Calm Calm - N/A   Overcast
11:55 AM 76.3 °F - 75.9 °F 99% 29.89 in 10.0 mi Calm Calm - N/A   Overcast
12:15 PM 76.8 °F - 76.5 °F 99% 29.88 in 10.0 mi Calm Calm - N/A   Overcast
12:35 PM 77.5 °F - 76.3 °F 96% 29.88 in 10.0 mi Calm Calm - N/A   Overcast
12:55 PM 78.1 °F - 75.6 °F 92% 29.88 in 10.0 mi Calm Calm - N/A   Overcast
1:15 PM 78.4 °F - 75.0 °F 89% 29.87 in 10.0 mi Calm Calm - N/A   Overcast
1:35 PM 79.0 °F - 74.3 °F 85% 29.87 in 10.0 mi ENE 3.5 mph - N/A   Overcast
1:55 PM 79.0 °F - 74.1 °F 85% 29.86 in 10.0 mi Calm Calm - N/A   Overcast
2:15 PM 78.8 °F - 73.9 °F 85% 29.86 in 10.0 mi Calm Calm - N/A   Overcast
2:35 PM 78.8 °F - 73.4 °F 83% 29.84 in 10.0 mi Calm Calm - N/A   Overcast
2:55 PM 78.8 °F - 74.1 °F 85% 29.83 in 10.0 mi East 5.8 mph - N/A   Overcast
3:15 PM 79.9 °F - 73.6 °F 81% 29.82 in 10.0 mi Calm Calm - N/A   Overcast
3:35 PM 80.2 °F 84.2 °F 72.1 °F 76% 29.81 in 10.0 mi East 4.6 mph - N/A   Scattered Clouds
3:55 PM 81.1 °F 85.6 °F 72.3 °F 74% 29.81 in 10.0 mi SE 3.5 mph - N/A   Clear
4:15 PM 81.0 °F 85.4 °F 72.5 °F 75% 29.81 in 10.0 mi ESE 3.5 mph - N/A   Clear
4:35 PM 80.8 °F 85.6 °F 73.2 °F 78% 29.80 in 10.0 mi East 3.5 mph - N/A   Scattered Clouds
4:55 PM 81.3 °F 86.5 °F 73.4 °F 77% 29.80 in 10.0 mi Calm Calm - N/A   Scattered Clouds
5:15 PM 81.1 °F 86.6 °F 73.9 °F 79% 29.81 in 10.0 mi ENE 4.6 mph - N/A   Scattered Clouds
5:35 PM 81.0 °F 86.2 °F 73.9 °F 79% 29.80 in 10.0 mi Calm Calm - N/A   Scattered Clouds
5:55 PM 80.6 °F 85.9 °F 74.5 °F 82% 29.80 in 10.0 mi ENE 3.5 mph - N/A Thunderstorm Mostly Cloudy
6:15 PM 79.9 °F - 75.4 °F 86% 29.80 in 10.0 mi ENE 3.5 mph - N/A   Mostly Cloudy
6:35 PM 79.2 °F - 76.5 °F 91% 29.80 in 10.0 mi Calm Calm - N/A   Mostly Cloudy
6:55 PM 78.6 °F - 77.9 °F 98% 29.80 in 10.0 mi ENE 5.8 mph - N/A   Mostly Cloudy
7:15 PM 78.1 °F - 78.1 °F 100% 29.80 in 10.0 mi East 3.5 mph - N/A   Scattered Clouds
7:35 PM - - - N/A% 29.80 in 10.0 mi ESE 3.5 mph - N/A   Scattered Clouds
7:55 PM 77.2 °F - 77.4 °F 100% 29.80 in 10.0 mi SE 6.9 mph - N/A   Mostly Cloudy
8:15 PM - - - N/A% 29.80 in 5.0 mi South 3.5 mph - N/A Rain Rain
8:35 PM 72.9 °F - - N/A% 29.80 in 10.0 mi SSE 3.5 mph - N/A   Overcast
8:55 PM 71.8 °F - - N/A% 29.80 in 10.0 mi South 3.5 mph - N/A   Mostly Cloudy
9:15 PM 71.6 °F - - N/A% 29.81 in 10.0 mi South 3.5 mph - N/A   Scattered Clouds
9:35 PM 71.2 °F - - N/A% 29.81 in 10.0 mi Calm Calm - N/A   Clear
9:55 PM 71.6 °F - - N/A% 29.82 in 10.0 mi SSE 3.5 mph - N/A   Clear
10:15 PM 71.8 °F - - N/A% 29.83 in 10.0 mi SSE 3.5 mph - N/A   Scattered Clouds
10:35 PM 72.0 °F - - N/A% 29.83 in 10.0 mi SSE 4.6 mph - N/A   Scattered Clouds
10:55 PM 72.1 °F - - N/A% 29.83 in 10.0 mi SSE 4.6 mph - N/A   Clear
11:15 PM 72.3 °F - - N/A% 29.83 in 10.0 mi Calm Calm - N/A   Scattered Clouds
11:35 PM 72.1 °F - - N/A% 29.82 in 10.0 mi SSE 3.5 mph - N/A   Scattered Clouds
11:55 PM 72.1 °F - - N/A% 29.82 in 10.0 mi SSE 3.5 mph - N/A   Scattered Clouds